Wind_Speed
41 40 39 38 37 37 35 33 30 29 28 27 26 25 25 25 24 23 21 19 18 17 17 17 17 17 17 17 17 17 17 16 17 17 17 16 16 16 15 14 13 13 13 12 12 12 11 11 11
43 42 42 41 40 38 35 34 32 31 31 30 29 28 27 26 26 25 23 21 20 19 19 19 19 19 19 19 19 19 18 18 18 18 18 18 18 17 17 17 16 15 15 14 14 14 13 13 12
46 45 44 43 42 39 37 35 34 33 33 33 32 31 29 28 27 27 25 23 23 22 21 22 21 21 21 20 20 20 20 20 20 19 19 19 19 19 18 18 18 18 17 17 16 16 15 15 14
48 47 47 46 44 41 39 37 35 34 34 34 34 33 32 31 30 29 28 26 25 25 24 24 24 23 23 23 22 22 22 22 22 22 21 21 20 20 20 19 19 19 19 19 19 18 18 17 17
49 49 48 47 45 42 41 39 38 36 35 35 34 34 33 32 32 31 31 30 28 27 27 27 27 26 26 25 25 24 24 24 24 24 24 23 23 22 21 21 21 20 20 20 20 20 20 20 19
50 50 48 47 44 43 42 40 40 39 38 36 35 34 34 33 33 32 32 32 31 30 30 29 29 29 28 28 27 27 27 26 26 26 26 26 25 25 24 23 23 23 22 21 22 22 22 21 21
50 49 48 46 44 43 42 41 40 40 39 38 37 36 35 34 34 34 33 33 32 31 31 31 32 31 31 31 30 30 29 29 28 28 28 28 27 27 27 26 25 25 24 24 24 23 23 23 23
50 49 48 46 44 43 43 42 41 41 40 39 38 37 36 35 34 34 34 34 34 33 33 33 33 34 34 33 33 33 32 32 31 31 30 30 30 30 29 29 28 28 27 26 26 25 25 25 25
48 48 47 45 44 43 42 41 41 40 40 39 38 37 36 35 35 35 34 34 34 34 34 34 34 35 35 35 35 35 35 35 34 34 33 33 32 32 32 32 31 31 30 29 28 28 27 27 27
46 46 45 44 43 42 41 40 40 39 39 38 38 37 36 36 35 35 35 35 35 35 35 35 35 36 36 36 37 37 37 37 37 37 36 36 35 35 34 34 34 33 33 32 32 31 30 30 29
44 44 43 43 42 42 41 40 40 39 38 38 38 37 37 36 36 35 35 36 36 36 36 36 36 37 37 37 37 38 38 39 39 39 39 39 38 37 37 37 36 35 35 35 34 34 33 32 31
42 42 42 42 41 40 40 40 39 39 38 38 38 38 37 37 36 35 35 36 36 36 37 37 37 37 37 38 38 39 39 40 40 41 41 41 40 40 39 39 39 38 37 37 37 36 36 35 35
40 40 40 40 40 40 40 40 39 38 38 38 37 37 37 36 36 35 35 36 36 36 37 37 37 37 38 38 39 39 40 40 40 41 41 41 41 41 40 40 40 40 40 39 39 39 38 38 37
39 39 38 38 38 39 39 39 39 38 38 37 37 37 36 36 36 36 36 36 36 37 37 38 38 38 38 39 39 39 39 40 40 41 41 41 41 41 41 41 41 41 41 41 41 41 41 40 39
37 38 37 37 37 37 38 38 38 38 38 37 37 37 37 37 37 37 37 37 37 38 38 38 39 39 39 39 40 39 40 40 41 41 42 42 42 42 42 43 42 42 42 43 43 43 43 42 41
36 36 37 37 36 36 36 36 37 37 37 37 38 38 38 38 38 38 38 38 39 39 39 39 39 40 40 41 41 42 42 42 43 43 44 45 45 45 45 44 44 44 43 44 45 45 45 44 43
35 34 34 35 35 35 35 35 35 36 36 37 38 39 39 40 40 40 40 40 40 40 40 40 40 41 41 42 43 44 44 44 45 45 46 46 46 46 46 47 46 46 46 45 46 47 46 46 45
32 33 32 32 33 33 34 34 34 35 35 36 37 38 39 40 41 41 41 41 41 41 42 42 43 43 44 45 45 46 46 47 47 47 48 49 48 49 49 49 48 48 48 48 48 47 48 48 48
28 30 30 30 30 31 32 32 32 33 34 35 36 36 37 38 39 40 41 41 42 42 43 44 44 44 45 45 46 47 47 48 48 48 49 50 50 51 51 51 51 51 51 50 50 50 50 49 49
24 26 28 28 28 29 29 30 30 31 32 33 34 35 36 37 38 38 40 41 42 42 43 44 45 45 46 47 48 48 49 49 49 49 50 51 51 52 52 51 52 52 52 53 52 53 52 52 51
21 23 24 26 27 27 28 28 29 30 31 32 33 34 35 35 37 38 39 40 41 42 43 44 45 45 46 47 48 48 49 49 50 50 51 51 51 52 52 53 53 54 54 54 54 53 53 53 53
17 19 20 22 24 25 26 27 28 29 30 31 32 33 33 34 35 36 36 37 38 39 40 41 42 43 44 44 45 46 47 48 49 50 51 51 52 52 52 53 54 54 55 56 55 55 55 55 55
14 15 17 19 20 22 23 24 24 26 26 27 28 30 30 30 31 32 33 34 35 36 36 37 38 40 40 41 43 44 45 46 47 48 49 50 51 52 52 53 53 54 55 56 56 56 56 55 55
11 12 13 15 16 17 18 19 20 21 22 23 24 25 25 25 26 27 29 31 32 32 33 35 36 37 39 40 41 42 42 43 44 45 46 47 49 50 51 52 52 53 54 55 55 56 56 56 55
8 9 10 12 13 14 15 16 17 18 19 20 21 21 21 23 24 25 25 26 27 28 30 31 32 33 35 36 37 38 39 40 41 43 44 46 47 49 50 50 52 53 54 55 54 54 54 54 54
7 8 9 10 12 12 13 13 14 14 15 16 17 18 19 20 21 22 23 23 24 25 26 27 28 30 31 32 33 34 36 38 39 41 42 43 43 44 45 47 48 50 51 52 53 52 51 51 52
6 6 7 8 9 10 11 11 11 11 12 12 12 14 15 16 17 18 20 21 21 22 23 24 25 26 27 27 29 30 32 34 35 36 37 38 39 41 42 43 44 45 47 49 50 50 49 49 49
3 4 6 6 7 7 7 7 8 9 9 9 9 10 11 11 12 13 15 16 17 18 20 21 22 22 23 24 25 26 27 28 29 30 33 34 35 36 37 38 39 41 42 44 46 46 47 48 47
3 3 4 4 4 5 5 5 6 7 8 9 8 9 9 10 11 12 12 13 14 15 16 17 17 18 19 20 21 22 23 24 25 26 28 29 31 32 32 34 35 37 37 39 41 43 44 45 46
2 3 3 4 4 5 5 5 5 6 6 7 7 7 8 9 10 10 11 12 12 13 13 14 15 16 16 17 17 17 18 20 21 23 24 25 27 28 29 30 32 33 34 35 37 39 41 43 44
Wind_Direction
233 232 231 231 232 232 232 232 232 232 233 234 234 235 237 239 242 244 243 243 244 244 246 248 249 250 251 253 254 256 256 257 258 259 260 260 260 261 263 264 264 264 264 265 264 264 265 265 265
232 231 231 231 232 233 233 233 233 233 234 234 235 236 237 240 243 246 245 245 246 247 248 250 250 251 252 254 255 256 257 258 259 259 260 260 260 260 261 262 263 263 263 264 265 264 264 265 265
231 231 231 231 232 233 233 233 234 234 234 235 236 237 238 240 242 245 246 246 247 248 249 250 251 252 253 254 256 257 258 258 259 259 260 260 259 260 261 262 263 263 262 262 263 263 263 263 265
231 231 231 231 232 233 233 233 234 235 236 237 237 238 239 241 243 245 247 247 247 248 249 250 252 254 255 256 256 257 259 259 259 259 260 260 260 260 261 261 262 263 263 262 262 263 263 263 264
229 230 231 232 233 232 233 233 234 234 236 238 239 239 240 242 244 246 247 248 249 249 250 251 253 254 256 257 258 258 259 259 259 259 259 260 260 261 261 261 261 262 264 263 263 263 263 263 263
228 229 230 232 232 233 234 233 235 236 236 237 239 240 241 243 244 246 248 249 250 250 251 252 253 255 256 257 258 259 260 260 261 260 260 260 260 260 260 262 262 263 263 263 264 263 263 262 263
227 228 230 231 231 232 233 234 234 236 237 237 238 240 242 243 244 246 247 249 250 251 251 252 254 255 256 257 259 260 260 261 261 262 261 262 261 261 261 261 261 262 263 263 264 265 265 263 263
225 227 228 229 230 231 233 234 234 235 237 238 238 239 241 242 244 245 247 249 250 251 252 253 254 255 257 258 259 260 260 261 261 262 262 262 262 262 262 261 261 261 261 262 263 264 265 264 264
223 224 226 227 228 230 232 233 234 235 236 237 237 238 239 240 242 244 246 248 250 251 252 253 255 256 257 258 258 259 260 261 261 262 262 262 263 263 263 262 261 261 261 262 262 262 263 264 264
220 222 224 225 227 228 229 231 232 233 234 235 237 238 239 239 241 243 245 248 250 252 253 254 255 257 258 258 259 259 260 261 262 262 263 263 263 263 263 263 262 261 261 261 261 262 262 263 264
218 220 221 222 224 226 227 228 230 232 234 235 236 237 239 240 241 243 246 248 250 252 253 254 255 256 258 258 259 259 260 261 261 262 263 264 263 263 263 264 264 262 261 261 261 261 261 261 262
217 218 219 220 221 224 226 227 229 231 234 236 237 238 239 241 242 243 246 248 250 251 253 254 255 256 257 258 259 260 261 261 262 262 262 263 264 264 264 264 263 263 262 261 261 261 261 261 261
213 215 218 219 220 222 225 227 228 231 233 235 237 238 240 241 242 243 245 247 249 251 253 254 255 256 257 258 259 259 260 261 262 262 261 262 263 263 263 263 263 263 263 262 261 260 260 260 261
212 213 215 217 219 222 224 227 229 231 233 235 237 239 240 242 244 245 246 248 250 252 254 255 256 256 257 257 258 258 259 260 260 261 261 261 262 263 263 263 263 262 262 261 260 260 259 260 261
210 212 214 216 218 221 224 227 230 232 234 237 239 241 242 244 246 248 249 250 252 254 255 256 257 257 257 257 257 258 259 259 260 260 261 261 261 262 263 262 262 261 261 261 260 259 259 259 259
208 211 214 216 219 222 225 228 231 234 236 239 241 243 245 246 248 250 252 253 254 255 256 257 257 258 258 258 258 258 259 260 260 260 261 261 261 261 262 262 262 261 260 260 260 260 258 258 258
209 211 213 217 220 224 228 231 234 237 239 241 244 245 247 249 251 252 254 255 256 256 257 257 258 259 260 260 260 260 260 261 260 260 261 261 262 261 262 262 261 260 260 259 260 260 260 259 258
212 214 215 219 222 226 229 233 236 239 242 244 246 248 249 251 253 255 256 257 257 257 257 258 259 259 260 261 261 262 262 262 261 261 261 261 262 261 261 261 261 260 259 258 258 258 259 258 257
213 217 219 221 225 228 231 235 238 241 244 246 248 249 251 253 254 256 257 257 257 258 259 259 260 261 261 261 262 262 262 262 262 262 261 261 261 261 260 260 260 260 259 258 257 257 258 258 258
211 215 220 223 227 231 234 237 240 243 245 247 249 251 253 255 256 257 258 258 259 260 261 261 261 262 262 263 262 262 262 262 262 262 262 262 262 262 261 260 259 259 258 258 257 257 258 257 258
209 214 220 226 229 234 237 239 241 245 247 249 251 253 255 256 257 258 260 261 261 261 261 262 262 263 264 263 263 263 262 262 262 262 262 262 262 262 262 260 259 258 258 258 258 257 258 258 258
209 213 220 225 230 235 239 242 244 247 249 252 254 255 257 258 259 260 261 262 263 263 263 263 263 264 264 263 263 263 263 262 261 261 260 260 261 262 261 260 259 258 258 258 258 258 258 258 258
209 214 221 226 232 237 240 244 244 248 251 254 256 257 258 258 259 260 262 263 264 264 264 265 266 265 264 265 265 264 263 262 261 262 262 261 261 261 261 260 258 257 257 257 258 258 258 258 258
208 216 223 228 231 236 239 243 245 249 253 256 259 259 258 258 259 261 264 265 265 266 267 269 268 267 266 267 267 266 264 263 262 263 262 262 262 262 262 260 259 258 257 257 257 257 257 257 258
208 217 222 224 226 232 238 244 247 250 254 256 259 259 258 259 260 263 266 267 268 269 271 272 270 269 268 267 266 265 264 264 264 264 264 264 263 263 262 261 260 258 257 256 256 256 256 256 257
208 215 222 229 231 236 240 245 249 253 254 256 257 257 260 262 264 265 267 270 272 273 272 272 272 271 271 270 268 267 266 266 266 266 267 266 266 264 264 263 261 259 257 255 254 255 256 256 256
203 214 222 231 236 237 241 245 246 249 252 254 255 256 261 267 267 267 271 275 276 274 273 273 274 274 273 273 271 271 270 269 268 269 269 268 267 266 266 265 262 260 257 255 254 255 255 255 255
196 209 218 228 238 241 242 247 246 246 252 255 258 259 264 270 273 273 277 279 279 279 278 276 276 277 277 277 277 275 274 272 271 272 271 270 269 268 266 265 263 260 258 255 253 253 255 256 256
185 206 218 225 234 247 249 256 255 254 257 261 263 266 272 277 281 281 282 285 288 287 284 278 278 280 281 280 280 280 279 276 276 277 275 272 270 270 268 266 263 260 258 255 254 254 255 256 257
177 197 217 232 247 261 267 264 259 260 259 263 267 272 279 284 287 287 287 289 295 297 294 288 285 284 285 285 288 289 287 285 283 282 280 277 274 272 270 268 265 261 258 257 256 257 257 258 259
Height
5802 5806 5810 5814 5818 5822 5825 5830 5833 5836 5838 5840 5843 5845 5847 5849 5852 5856 5857 5858 5860 5861 5862 5864 5865 5866 5867 5868 5869 5870 5872 5873 5873 5874 5875 5876 5877 5877 5878 5878 5879 5879 5879 5879 5879 5880 5880 5880 5880
5794 5799 5803 5807 5811 5815 5821 5824 5828 5831 5833 5835 5838 5841 5843 5845 5847 5850 5852 5854 5856 5858 5859 5860 5862 5863 5864 5865 5866 5868 5869 5870 5871 5872 5872 5873 5874 5875 5875 5876 5876 5877 5877 5877 5877 5878 5878 5878 5878
5786 5790 5796 5800 5804 5810 5815 5819 5822 5825 5827 5830 5833 5836 5839 5841 5843 5845 5847 5850 5852 5854 5855 5857 5858 5859 5861 5862 5863 5864 5865 5867 5868 5869 5869 5870 5871 5872 5872 5873 5874 5874 5874 5874 5875 5875 5875 5876 5876
5777 5782 5787 5793 5797 5803 5808 5812 5815 5819 5822 5825 5828 5831 5834 5836 5838 5841 5843 5845 5847 5849 5851 5853 5854 5855 5857 5858 5860 5861 5862 5863 5864 5865 5866 5867 5868 5868 5869 5870 5870 5871 5871 5871 5872 5872 5873 5873 5873
5767 5772 5778 5784 5791 5796 5800 5805 5809 5812 5816 5819 5823 5826 5829 5831 5833 5836 5838 5840 5842 5845 5846 5848 5850 5851 5853 5854 5855 5857 5858 5859 5860 5861 5862 5863 5864 5865 5866 5866 5867 5867 5868 5868 5869 5869 5869 5870 5870
5758 5764 5771 5777 5784 5789 5793 5798 5802 5806 5810 5813 5817 5820 5823 5826 5828 5830 5832 5835 5837 5839 5841 5843 5845 5846 5848 5849 5851 5852 5853 5854 5855 5857 5858 5859 5860 5860 5861 5862 5863 5863 5864 5864 5865 5865 5865 5866 5866
5750 5757 5763 5770 5776 5781 5786 5790 5795 5799 5803 5807 5811 5814 5817 5820 5822 5824 5827 5829 5832 5834 5836 5838 5839 5841 5842 5844 5846 5847 5848 5849 5851 5852 5853 5854 5855 5856 5857 5858 5858 5859 5860 5860 5861 5861 5861 5862 5862
5741 5749 5755 5762 5768 5773 5778 5783 5787 5792 5796 5801 5805 5808 5811 5814 5816 5819 5821 5823 5826 5828 5830 5832 5833 5835 5837 5838 5840 5841 5842 5844 5845 5846 5847 5848 5849 5850 5851 5852 5853 5854 5855 5855 5856 5856 5857 5857 5858
5732 5741 5747 5755 5761 5767 5771 5776 5780 5785 5789 5794 5798 5801 5805 5807 5810 5812 5815 5817 5819 5822 5824 5825 5827 5829 5830 5832 5833 5835 5836 5837 5839 5840 5841 5842 5843 5844 5845 5846 5847 5848 5849 5850 5850 5851 5851 5852 5853
5725 5733 5741 5748 5754 5760 5765 5769 5774 5778 5782 5787 5791 5794 5798 5801 5804 5806 5809 5811 5813 5815 5817 5819 5821 5822 5824 5825 5827 5828 5829 5831 5832 5833 5834 5836 5837 5838 5839 5840 5841 5842 5843 5844 5844 5845 5845 5846 5847
5718 5726 5734 5741 5747 5752 5757 5762 5767 5771 5776 5780 5784 5787 5791 5794 5797 5800 5802 5804 5807 5808 5810 5812 5814 5815 5817 5818 5820 5821 5822 5823 5825 5826 5827 5828 5829 5831 5832 5833 5834 5835 5836 5837 5837 5838 5839 5840 5840
5713 5720 5727 5734 5740 5746 5751 5756 5761 5765 5769 5773 5777 5780 5784 5787 5790 5793 5795 5797 5800 5801 5803 5805 5807 5808 5809 5811 5812 5813 5815 5816 5817 5818 5819 5820 5821 5823 5824 5825 5826 5827 5828 5829 5830 5831 5832 5833 5834
5708 5715 5721 5728 5734 5739 5744 5750 5754 5758 5763 5766 5770 5773 5776 5780 5783 5785 5788 5790 5792 5794 5796 5798 5799 5801 5802 5803 5804 5805 5806 5808 5808 5809 5810 5811 5813 5814 5815 5816 5817 5819 5820 5821 5822 5823 5824 5825 5826
5703 5710 5716 5722 5728 5733 5739 5743 5748 5752 5756 5760 5763 5766 5770 5773 5775 5778 5781 5783 5785 5787 5788 5790 5791 5792 5794 5795 5796 5797 5798 5799 5800 5801 5801 5803 5804 5805 5806 5807 5808 5810 5811 5812 5813 5815 5816 5817 5818
5699 5706 5711 5717 5722 5728 5733 5738 5742 5746 5750 5753 5757 5760 5763 5766 5768 5771 5773 5775 5777 5779 5780 5781 5783 5784 5785 5786 5787 5788 5789 5790 5791 5792 5792 5794 5795 5796 5797 5798 5799 5801 5801 5802 5804 5805 5806 5808 5809
5695 5701 5707 5713 5718 5723 5729 5733 5736 5740 5744 5747 5750 5753 5756 5758 5761 5763 5765 5767 5769 5770 5772 5773 5774 5775 5776 5777 5778 5779 5780 5780 5782 5782 5783 5784 5785 5786 5787 5788 5790 5791 5792 5793 5794 5795 5797 5798 5800
5692 5698 5704 5709 5714 5719 5723 5727 5731 5734 5737 5740 5743 5746 5749 5751 5753 5755 5757 5758 5760 5761 5763 5764 5765 5766 5767 5767 5768 5769 5770 5770 5771 5772 5773 5774 5774 5775 5777 5778 5779 5780 5781 5783 5784 5785 5787 5789 5790
5691 5696 5701 5706 5710 5714 5718 5722 5725 5728 5731 5734 5737 5739 5741 5743 5745 5747 5748 5749 5751 5752 5753 5754 5755 5756 5756 5757 5758 5758 5759 5759 5760 5761 5762 5762 5763 5764 5765 5767 5768 5769 5771 5772 5773 5775 5776 5778 5779
5688 5694 5698 5702 5706 5710 5713 5717 5720 5723 5725 5728 5730 5732 5734 5735 5737 5738 5739 5740 5742 5743 5743 5744 5745 5745 5746 5746 5746 5747 5747 5748 5748 5749 5749 5750 5751 5752 5753 5755 5756 5758 5759 5761 5763 5764 5765 5767 5768
5686 5691 5695 5699 5702 5706 5709 5712 5715 5717 5719 5721 5723 5725 5726 5728 5729 5730 5730 5731 5732 5733 5733 5734 5734 5735 5735 5735 5735 5735 5736 5736 5737 5737 5738 5738 5738 5739 5740 5742 5744 5745 5747 5749 5751 5752 5753 5755 5756
5685 5689 5692 5696 5699 5702 5705 5708 5710 5712 5713 5715 5717 5717 5719 5720 5720 5721 5721 5722 5722 5723 5723 5723 5723 5723 5723 5723 5723 5723 5723 5724 5724 5725 5725 5725 5726 5726 5727 5729 5730 5732 5734 5736 5738 5739 5741 5743 5744
5684 5686 5690 5692 5696 5698 5701 5703 5706 5706 5708 5709 5710 5710 5711 5712 5712 5712 5713 5713 5712 5712 5712 5712 5712 5712 5711 5711 5711 5711 5711 5712 5712 5712 5712 5713 5713 5713 5714 5715 5717 5718 5720 5722 5724 5726 5727 5729 5731
5683 5685 5688 5690 5692 5695 5696 5698 5701 5701 5702 5703 5703 5703 5704 5704 5704 5704 5704 5704 5703 5703 5703 5702 5702 5701 5700 5700 5699 5699 5699 5699 5699 5699 5700 5700 5700 5700 5701 5702 5703 5704 5706 5708 5710 5712 5713 5715 5717
5682 5684 5686 5688 5689 5692 5693 5694 5696 5696 5697 5697 5697 5697 5697 5697 5697 5697 5696 5695 5695 5694 5693 5692 5691 5691 5690 5689 5688 5688 5688 5687 5687 5687 5688 5688 5687 5687 5687 5688 5689 5690 5692 5694 5696 5697 5699 5701 5703
5682 5684 5686 5686 5687 5689 5689 5690 5692 5692 5692 5692 5692 5691 5691 5691 5690 5690 5689 5688 5687 5686 5685 5684 5682 5681 5680 5679 5678 5677 5677 5677 5677 5676 5676 5676 5675 5675 5674 5674 5675 5676 5678 5680 5681 5683 5685 5687 5688
5681 5683 5685 5685 5686 5686 5686 5686 5688 5688 5687 5687 5687 5686 5686 5685 5685 5684 5683 5682 5680 5679 5677 5676 5675 5673 5671 5670 5669 5668 5667 5666 5666 5665 5664 5663 5663 5662 5662 5661 5662 5662 5664 5665 5668 5670 5672 5673 5675
5681 5682 5683 5684 5683 5684 5684 5684 5685 5684 5684 5683 5683 5682 5682 5681 5679 5679 5677 5676 5674 5672 5670 5669 5668 5666 5664 5662 5660 5659 5657 5656 5656 5654 5653 5652 5651 5650 5650 5649 5649 5650 5651 5653 5655 5657 5659 5661 5662
5681 5681 5681 5682 5681 5682 5682 5682 5682 5681 5681 5680 5679 5679 5678 5677 5676 5674 5672 5670 5668 5666 5664 5663 5661 5659 5657 5655 5654 5651 5649 5648 5647 5645 5643 5642 5641 5640 5639 5638 5638 5639 5640 5641 5643 5646 5647 5649 5650
5681 5681 5680 5680 5680 5680 5680 5683 5680 5679 5678 5677 5677 5676 5675 5673 5672 5670 5668 5666 5664 5661 5659 5657 5656 5654 5652 5650 5647 5645 5643 5641 5639 5637 5635 5633 5632 5630 5629 5628 5628 5629 5629 5631 5632 5634 5636 5637 5639
5680 5680 5680 5680 5680 5679 5678 5682 5678 5677 5675 5675 5674 5673 5671 5670 5668 5666 5665 5663 5660 5658 5655 5653 5651 5649 5647 5645 5642 5640 5638 5635 5633 5631 5629 5627 5625 5623 5621 5620 5620 5620 5621 5622 5623 5624 5625 5626 5628